When you browse on this site, cookies collect data to enhance your experience and personalize the content and advertising you see.
Visit our Privacy Policy to learn more. By continuing to use the site, you agree to this use of cookies and data.
  • In Czech Republic
  • List of Countries
  • For 7 days
  • Water Temperature
  • Weather Map
  • Weather Widgets
  • user-avatar
    Login

    Hourly Weather Puerto Parra

    Today, 3 April, Friday

    Time Temperature Precipitation Wind Pressure Humidity
    00:00 +24°C° 1.3 mm 0 mps 751 mmHg 95%
    01:00 +23°C° 1.3 mm 0 mps 751 mmHg 97%
    02:00 +23°C° 0.7 mm 0 mps 750 mmHg 97%
    03:00 +23°C° 0.7 mm 0 mps 750 mmHg 97%
    04:00 +23°C° 0.7 mm 0 mps 750 mmHg 98%
    05:00 +23°C° 0.3 mm 0 mps 750 mmHg 97%
    06:00 +24°C° 0.3 mm 0 mps 751 mmHg 97%
    07:00 +24°C° 0.3 mm 0 mps 751 mmHg 96%
    08:00 +26°C° 0.1 mm 0 mps 751 mmHg 87%
    09:00 +28°C° 0.1 mm 0 mps 751 mmHg 77%
    10:00 +30°C° 0.1 mm 0 mps 751 mmHg 68%
    11:00 +32°C° 0.2 mm 0 mps 750 mmHg 62%
    12:00 +34°C° 0.2 mm 0 mps 749 mmHg 56%
    13:00 +35°C° 0.2 mm 0 mps 748 mmHg 50%
    14:00 +35°C° 0 mm 0 mps 748 mmHg 51%
    15:00 +36°C° 0 mm 1 mps 747 mmHg 52%
    16:00 +35°C° 0 mm 1 mps 747 mmHg 53%
    17:00 +33°C° 0.2 mm 1 mps 747 mmHg 64%
    18:00 +31°C° 0.2 mm 1 mps 748 mmHg 74%
    19:00 +26°C° 0.2 mm 0 mps 748 mmHg 85%
    20:00 +26°C° 1 mm 0 mps 749 mmHg 88%
    21:00 +25°C° 1 mm 0 mps 750 mmHg 92%
    22:00 +25°C° 1 mm 0 mps 750 mmHg 95%
    23:00 +24°C° 0.9 mm 0 mps 750 mmHg 96%

    Tomorrow, 4 April, Saturday

    Time Temperature Precipitation Wind Pressure Humidity
    00:00 +24°C° 0.9 mm 0 mps 750 mmHg 96%
    01:00 +26°C° 0.9 mm 1 mps 750 mmHg 96%
    02:00 +24°C° 0.7 mm 0 mps 750 mmHg 97%
    03:00 +24°C° 0.7 mm 0 mps 750 mmHg 97%
    04:00 +24°C° 0.7 mm 0 mps 749 mmHg 97%
    05:00 +24°C° 0.8 mm 0 mps 750 mmHg 97%
    06:00 +24°C° 0.8 mm 0 mps 750 mmHg 97%
    07:00 +24°C° 0.8 mm 0 mps 751 mmHg 97%
    08:00 +26°C° 0.1 mm 0 mps 751 mmHg 89%
    09:00 +28°C° 0.1 mm 0 mps 751 mmHg 81%
    10:00 +29°C° 0.1 mm 0 mps 751 mmHg 74%
    11:00 +31°C° 0.2 mm 0 mps 750 mmHg 69%
    12:00 +34°C° 0.2 mm 1 mps 749 mmHg 63%
    13:00 +35°C° 0.2 mm 1 mps 748 mmHg 58%
    14:00 +35°C° 0.1 mm 1 mps 747 mmHg 59%
    15:00 +34°C° 0.1 mm 1 mps 747 mmHg 59%
    16:00 +34°C° 0.1 mm 1 mps 747 mmHg 60%
    17:00 +32°C° 0 mm 1 mps 747 mmHg 67%
    18:00 +31°C° 0 mm 1 mps 748 mmHg 75%
    19:00 +27°C° 0 mm 0 mps 748 mmHg 82%
    20:00 +26°C° 0.3 mm 0 mps 749 mmHg 85%
    21:00 +26°C° 0.3 mm 0 mps 750 mmHg 88%
    22:00 +25°C° 0.3 mm 0 mps 750 mmHg 91%
    23:00 +25°C° 0.1 mm 0 mps 750 mmHg 91%

    Day after tomorrow, 5 April, Sunday

    Time Temperature Precipitation Wind Pressure Humidity
    00:00 +25°C° 0.1 mm 0 mps 750 mmHg 92%
    01:00 +24°C° 0.1 mm 0 mps 749 mmHg 93%
    02:00 +24°C° 0 mm 0 mps 749 mmHg 93%
    03:00 +24°C° 0 mm 0 mps 749 mmHg 94%
    04:00 +24°C° 0 mm 0 mps 749 mmHg 94%
    05:00 +24°C° 0.8 mm 0 mps 750 mmHg 95%
    06:00 +24°C° 0.8 mm 0 mps 750 mmHg 95%
    07:00 +24°C° 0.8 mm 0 mps 750 mmHg 96%
    08:00 +27°C° 0.1 mm 0 mps 750 mmHg 87%
    09:00 +29°C° 0.1 mm 0 mps 750 mmHg 77%
    10:00 +31°C° 0.1 mm 0 mps 751 mmHg 68%
    11:00 +33°C° 0.1 mm 0 mps 750 mmHg 62%
    12:00 +34°C° 0.1 mm 0 mps 749 mmHg 56%
    13:00 +36°C° 0.1 mm 0 mps 747 mmHg 51%
    14:00 +35°C° 0 mm 0 mps 747 mmHg 52%
    15:00 +35°C° 0 mm 0 mps 747 mmHg 53%
    16:00 +36°C° 0 mm 1 mps 747 mmHg 55%
    17:00 +34°C° 0.1 mm 1 mps 747 mmHg 63%
    18:00 +30°C° 0.1 mm 0 mps 748 mmHg 71%
    19:00 +28°C° 0.1 mm 0 mps 748 mmHg 80%
    20:00 +27°C° 0.6 mm 0 mps 749 mmHg 84%
    21:00 +26°C° 0.6 mm 0 mps 750 mmHg 89%
    22:00 +26°C° 0.6 mm 0 mps 750 mmHg 93%
    23:00 +25°C° 0.9 mm 0 mps 750 mmHg 94%

    6 April, Monday

    Time Temperature Precipitation Wind Pressure Humidity
    00:00 +25°C° 0.9 mm 0 mps 750 mmHg 95%
    01:00 +25°C° 0.9 mm 0 mps 750 mmHg 96%
    02:00 +25°C° 2.6 mm 0 mps 750 mmHg 97%
    03:00 +24°C° 2.6 mm 0 mps 750 mmHg 97%
    04:00 +26°C° 2.6 mm 1 mps 750 mmHg 98%
    05:00 +24°C° 0.1 mm 0 mps 750 mmHg 98%
    06:00 +24°C° 0.1 mm 0 mps 751 mmHg 97%
    07:00 +24°C° 0.1 mm 0 mps 751 mmHg 97%
    08:00 +26°C° 0 mm 0 mps 751 mmHg 89%
    09:00 +28°C° 0 mm 0 mps 751 mmHg 81%
    10:00 +31°C° 0 mm 1 mps 751 mmHg 73%
    11:00 +33°C° 0 mm 1 mps 750 mmHg 67%
    12:00 +33°C° 0 mm 0 mps 749 mmHg 60%
    13:00 +34°C° 0 mm 0 mps 748 mmHg 54%
    14:00 +34°C° 0 mm 0 mps 748 mmHg 54%
    15:00 +34°C° 0 mm 0 mps 748 mmHg 55%
    16:00 +33°C° 0 mm 0 mps 747 mmHg 56%
    17:00 +31°C° 0 mm 0 mps 748 mmHg 64%
    18:00 +30°C° 0 mm 0 mps 749 mmHg 71%
    19:00 +28°C° 0 mm 0 mps 749 mmHg 79%
    20:00 +27°C° 0.2 mm 0 mps 750 mmHg 82%
    21:00 +27°C° 0.2 mm 0 mps 751 mmHg 85%
    22:00 +26°C° 0.2 mm 0 mps 751 mmHg 87%
    23:00 +26°C° 1.9 mm 0 mps 751 mmHg 90%

    7 April, Tuesday

    Time Temperature Precipitation Wind Pressure Humidity
    00:00 +25°C° 1.9 mm 0 mps 750 mmHg 93%
    01:00 +25°C° 1.9 mm 0 mps 750 mmHg 96%
    02:00 +24°C° 0.8 mm 0 mps 750 mmHg 96%
    03:00 +24°C° 0.8 mm 0 mps 750 mmHg 96%
    04:00 +24°C° 0.8 mm 0 mps 750 mmHg 96%
    05:00 +24°C° 0.7 mm 0 mps 750 mmHg 96%
    06:00 +25°C° 0.7 mm 0 mps 751 mmHg 96%
    07:00 +25°C° 0.7 mm 0 mps 751 mmHg 95%
    08:00 +26°C° 0.7 mm 0 mps 751 mmHg 89%
    09:00 +28°C° 0.7 mm 0 mps 751 mmHg 83%
    10:00 +30°C° 0.7 mm 0 mps 751 mmHg 76%
    11:00 +33°C° 0.2 mm 1 mps 750 mmHg 70%
    12:00 +35°C° 0.2 mm 1 mps 749 mmHg 63%
    13:00 +36°C° 0.2 mm 1 mps 748 mmHg 57%
    14:00 +36°C° 0 mm 1 mps 748 mmHg 57%
    15:00 +33°C° 0 mm 0 mps 748 mmHg 57%
    16:00 +33°C° 0 mm 0 mps 747 mmHg 57%
    17:00 +32°C° 0 mm 0 mps 748 mmHg 64%
    18:00 +30°C° 0 mm 0 mps 749 mmHg 71%
    19:00 +28°C° 0 mm 0 mps 749 mmHg 79%
    20:00 +27°C° 0.3 mm 0 mps 750 mmHg 82%
    21:00 +27°C° 0.3 mm 0 mps 750 mmHg 86%
    22:00 +26°C° 0.3 mm 0 mps 751 mmHg 89%
    23:00 +26°C° 0.8 mm 0 mps 751 mmHg 91%

    8 April, Wednesday

    Time Temperature Precipitation Wind Pressure Humidity
    00:00 +25°C° 0.8 mm 0 mps 750 mmHg 93%
    01:00 +25°C° 0.8 mm 0 mps 750 mmHg 94%
    02:00 +25°C° 1.4 mm 0 mps 750 mmHg 95%
    03:00 +24°C° 1.4 mm 0 mps 750 mmHg 96%
    04:00 +24°C° 1.4 mm 0 mps 750 mmHg 97%
    05:00 +24°C° 0.6 mm 0 mps 750 mmHg 96%
    06:00 +25°C° 0.6 mm 0 mps 750 mmHg 96%
    07:00 +25°C° 0.6 mm 0 mps 751 mmHg 95%
    08:00 +27°C° 0.6 mm 0 mps 751 mmHg 88%
    09:00 +29°C° 0.6 mm 0 mps 751 mmHg 82%
    10:00 +30°C° 0.6 mm 0 mps 751 mmHg 75%
    11:00 +34°C° 0.2 mm 1 mps 750 mmHg 68%
    12:00 +35°C° 0.2 mm 1 mps 749 mmHg 61%
    13:00 +36°C° 0.2 mm 1 mps 748 mmHg 54%
    14:00 +36°C° 0 mm 1 mps 748 mmHg 54%
    15:00 +36°C° 0 mm 1 mps 747 mmHg 54%
    16:00 +36°C° 0 mm 1 mps 747 mmHg 55%
    17:00 +33°C° 0.2 mm 1 mps 747 mmHg 65%
    18:00 +29°C° 0.2 mm 0 mps 748 mmHg 75%
    19:00 +27°C° 0.2 mm 0 mps 749 mmHg 85%
    20:00 +26°C° 0.3 mm 0 mps 750 mmHg 88%
    21:00 +26°C° 0.3 mm 0 mps 750 mmHg 90%
    22:00 +25°C° 0.3 mm 0 mps 751 mmHg 93%
    23:00 +25°C° 1.2 mm 0 mps 751 mmHg 94%
    Show more